Year,Month,Day,Hour,Minute,Value (Times are PST for windgust in km/hr)
2016,12,20,00,00,9.60
2016,12,20,00,01,6.40
2016,12,20,00,02,16.10
2016,12,20,00,03,17.70
2016,12,20,00,04,6.40
2016,12,20,00,05,3.20
2016,12,20,00,07,1.60
2016,12,20,00,08,6.40
2016,12,20,00,09,11.30
2016,12,20,00,10,6.40
2016,12,20,00,11,6.40
2016,12,20,00,12,1.60
2016,12,20,00,13,11.30
2016,12,20,00,14,11.30
2016,12,20,00,15,16.10
2016,12,20,00,16,11.30
2016,12,20,00,17,8.10
2016,12,20,00,18,9.60
2016,12,20,00,19,8.10
2016,12,20,00,20,8.10
2016,12,20,00,21,1.60
2016,12,20,00,22,11.30
2016,12,20,00,23,16.10
2016,12,20,00,24,27.40
2016,12,20,00,25,8.10
2016,12,20,00,26,9.60
2016,12,20,00,28,6.40
2016,12,20,00,29,3.20
2016,12,20,00,30,1.60
2016,12,20,00,31,1.60
2016,12,20,00,33,3.20
2016,12,20,00,34,6.40
2016,12,20,00,35,6.40
2016,12,20,00,36,8.10
2016,12,20,00,37,4.80
2016,12,20,00,38,9.60
2016,12,20,00,39,1.60
2016,12,20,00,42,1.60
2016,12,20,00,44,1.60
2016,12,20,00,45,8.10
2016,12,20,00,46,1.60
2016,12,20,00,47,1.60
2016,12,20,00,48,1.60
2016,12,20,00,49,8.10
2016,12,20,00,50,8.10
2016,12,20,00,51,8.10
2016,12,20,00,54,1.60
2016,12,20,00,55,4.80
2016,12,20,00,56,4.80
2016,12,20,00,57,3.20
2016,12,20,00,58,8.10
2016,12,20,00,59,6.40
2016,12,20,01,00,6.40
2016,12,20,01,02,1.60
2016,12,20,01,06,8.10
2016,12,20,01,07,6.40
2016,12,20,01,08,3.20
2016,12,20,01,14,1.60
2016,12,20,01,19,1.60
2016,12,20,01,25,1.60
2016,12,20,01,29,1.60
2016,12,20,01,30,1.60
2016,12,20,01,32,3.20
2016,12,20,01,33,1.60
2016,12,20,01,35,3.20
2016,12,20,01,36,1.60
2016,12,20,01,37,4.80
2016,12,20,01,40,1.60
2016,12,20,01,49,3.20
2016,12,20,01,52,6.40
2016,12,20,01,53,8.10
2016,12,20,01,54,6.40
2016,12,20,01,55,4.80
2016,12,20,02,02,4.80
2016,12,20,02,03,3.20
2016,12,20,02,04,1.60
2016,12,20,02,21,1.60
2016,12,20,02,22,1.60
2016,12,20,02,24,3.20
2016,12,20,02,37,1.60
2016,12,20,03,18,6.40
2016,12,20,03,19,11.30
2016,12,20,03,20,6.40
2016,12,20,03,21,4.80
2016,12,20,03,24,3.20
2016,12,20,03,25,6.40
2016,12,20,03,26,6.40
2016,12,20,03,27,8.10
2016,12,20,03,28,3.20
2016,12,20,03,29,1.60
2016,12,20,03,31,4.80
2016,12,20,03,32,8.10
2016,12,20,03,33,11.30
2016,12,20,03,34,12.90
2016,12,20,03,35,16.10
2016,12,20,03,36,9.60
2016,12,20,03,37,11.30
2016,12,20,03,38,12.90
2016,12,20,03,39,12.90
2016,12,20,03,40,17.70
2016,12,20,03,41,19.30
2016,12,20,03,42,19.30
2016,12,20,03,43,19.30
2016,12,20,03,44,24.20
2016,12,20,03,45,24.20
2016,12,20,03,46,22.50
2016,12,20,03,47,19.30
2016,12,20,03,48,29.00
2016,12,20,03,49,17.70
2016,12,20,03,50,16.10
2016,12,20,03,51,22.50
2016,12,20,03,52,19.30
2016,12,20,03,53,16.10
2016,12,20,03,54,19.30
2016,12,20,03,55,17.70
2016,12,20,03,56,24.20
2016,12,20,03,57,19.30
2016,12,20,03,58,20.90
2016,12,20,03,59,27.40
2016,12,20,04,00,30.60
2016,12,20,04,01,32.20
2016,12,20,04,02,25.70
2016,12,20,04,03,45.10
2016,12,20,04,04,38.60
2016,12,20,04,05,33.80
2016,12,20,04,06,38.60
2016,12,20,04,07,38.60
2016,12,20,04,08,43.50
2016,12,20,04,09,38.60
2016,12,20,04,10,48.30
2016,12,20,04,11,40.20
2016,12,20,04,12,38.60
2016,12,20,04,13,43.50
2016,12,20,04,14,41.80
2016,12,20,04,15,46.70
2016,12,20,04,16,35.40
2016,12,20,04,17,30.60
2016,12,20,04,18,38.60
2016,12,20,04,19,43.50
2016,12,20,04,20,37.00
2016,12,20,04,21,40.20
2016,12,20,04,22,49.90
2016,12,20,04,23,35.40
2016,12,20,04,24,33.80
2016,12,20,04,25,38.60
2016,12,20,04,26,30.60
2016,12,20,04,27,32.20
2016,12,20,04,28,33.80
2016,12,20,04,29,35.40
2016,12,20,04,30,33.80
2016,12,20,04,31,46.70
2016,12,20,04,32,54.70
2016,12,20,04,33,43.50
2016,12,20,04,34,43.50
2016,12,20,04,35,46.70
2016,12,20,04,36,40.20
2016,12,20,04,37,53.10
2016,12,20,04,38,57.90
2016,12,20,04,39,51.50
2016,12,20,04,40,49.90
2016,12,20,04,41,56.30
2016,12,20,04,42,64.40
2016,12,20,04,43,53.10
2016,12,20,04,44,43.50
2016,12,20,04,45,48.30
2016,12,20,04,46,62.70
2016,12,20,04,47,38.60
2016,12,20,04,48,38.60
2016,12,20,04,49,51.50
2016,12,20,04,50,37.00
2016,12,20,04,51,83.70
2016,12,20,04,52,43.50
2016,12,20,04,53,40.20
2016,12,20,04,54,25.70
2016,12,20,04,55,38.60
2016,12,20,04,56,33.80
2016,12,20,04,57,53.10
2016,12,20,04,58,56.30
2016,12,20,04,59,29.00
2016,12,20,05,00,35.40
2016,12,20,05,01,32.20
2016,12,20,05,02,40.20
2016,12,20,05,03,32.20
2016,12,20,05,04,35.40
2016,12,20,05,05,30.60
2016,12,20,05,06,48.30
2016,12,20,05,07,45.10
2016,12,20,05,08,20.90
2016,12,20,05,09,32.20
2016,12,20,05,10,30.60
2016,12,20,05,11,46.70
2016,12,20,05,12,41.80
2016,12,20,05,13,38.60
2016,12,20,05,14,37.00
2016,12,20,05,15,46.70
2016,12,20,05,16,45.10
2016,12,20,05,17,30.60
2016,12,20,05,18,51.50
2016,12,20,05,19,37.00
2016,12,20,05,20,43.50
2016,12,20,05,21,32.20
2016,12,20,05,22,30.60
2016,12,20,05,23,33.80
2016,12,20,05,24,32.20
2016,12,20,05,25,40.20
2016,12,20,05,26,45.10
2016,12,20,05,27,43.50
2016,12,20,05,28,43.50
2016,12,20,05,29,38.60
2016,12,20,05,30,37.00
2016,12,20,05,31,46.70
2016,12,20,05,32,30.60
2016,12,20,05,33,37.00
2016,12,20,05,34,40.20
2016,12,20,05,35,29.00
2016,12,20,05,36,43.50
2016,12,20,05,37,46.70
2016,12,20,05,38,33.80
2016,12,20,05,39,38.60
2016,12,20,05,40,33.80
2016,12,20,05,41,38.60
2016,12,20,05,42,38.60
2016,12,20,05,43,38.60
2016,12,20,05,44,30.60
2016,12,20,05,45,33.80
2016,12,20,05,46,24.20
2016,12,20,05,47,37.00
2016,12,20,05,48,37.00
2016,12,20,05,49,51.50
2016,12,20,05,50,41.80
2016,12,20,05,51,37.00
2016,12,20,05,52,38.60
2016,12,20,05,53,41.80
2016,12,20,05,54,27.40
2016,12,20,05,55,35.40
2016,12,20,05,56,35.40
2016,12,20,05,57,38.60
2016,12,20,05,58,43.50
2016,12,20,05,59,30.60
2016,12,20,06,00,29.00
2016,12,20,06,01,16.10
2016,12,20,06,02,19.30
2016,12,20,06,03,32.20
2016,12,20,06,04,38.60
2016,12,20,06,05,29.00
2016,12,20,06,06,30.60
2016,12,20,06,07,48.30
2016,12,20,06,08,35.40
2016,12,20,06,09,30.60
2016,12,20,06,10,41.80
2016,12,20,06,11,25.70
2016,12,20,06,12,37.00
2016,12,20,06,13,25.70
2016,12,20,06,14,29.00
2016,12,20,06,15,32.20
2016,12,20,06,16,38.60
2016,12,20,06,17,27.40
2016,12,20,06,18,25.70
2016,12,20,06,19,33.80
2016,12,20,06,20,35.40
2016,12,20,06,21,20.90
2016,12,20,06,22,22.50
2016,12,20,06,23,33.80
2016,12,20,06,24,20.90
2016,12,20,06,25,27.40
2016,12,20,06,26,30.60
2016,12,20,06,27,17.70
2016,12,20,06,28,22.50
2016,12,20,06,29,20.90
2016,12,20,06,30,19.30
2016,12,20,06,31,22.50
2016,12,20,06,32,32.20
2016,12,20,06,33,27.40
2016,12,20,06,34,16.10
2016,12,20,06,35,16.10
2016,12,20,06,36,19.30
2016,12,20,06,37,25.70
2016,12,20,06,38,22.50
2016,12,20,06,39,30.60
2016,12,20,06,40,51.50
2016,12,20,06,41,20.90
2016,12,20,06,42,37.00
2016,12,20,06,43,27.40
2016,12,20,06,44,25.70
2016,12,20,06,45,25.70
2016,12,20,06,46,37.00
2016,12,20,06,47,27.40
2016,12,20,06,48,22.50
2016,12,20,06,49,17.70
2016,12,20,06,50,33.80
2016,12,20,06,51,33.80
2016,12,20,06,52,19.30
2016,12,20,06,53,14.50
2016,12,20,06,54,16.10
2016,12,20,06,55,17.70
2016,12,20,06,56,17.70
2016,12,20,06,57,20.90
2016,12,20,06,58,20.90
2016,12,20,06,59,14.50
2016,12,20,07,00,24.20
2016,12,20,07,01,17.70
2016,12,20,07,02,19.30
2016,12,20,07,03,11.30
2016,12,20,07,04,16.10
2016,12,20,07,05,24.20
2016,12,20,07,06,25.70
2016,12,20,07,07,20.90
2016,12,20,07,08,27.40
2016,12,20,07,09,25.70
2016,12,20,07,10,38.60
2016,12,20,07,11,37.00
2016,12,20,07,12,24.20
2016,12,20,07,13,25.70
2016,12,20,07,14,29.00
2016,12,20,07,15,17.70
2016,12,20,07,16,22.50
2016,12,20,07,17,20.90
2016,12,20,07,18,29.00
2016,12,20,07,19,25.70
2016,12,20,07,20,33.80
2016,12,20,07,21,33.80
2016,12,20,07,22,25.70
2016,12,20,07,23,22.50
2016,12,20,07,24,17.70
2016,12,20,07,25,20.90
2016,12,20,07,26,27.40
2016,12,20,07,27,19.30
2016,12,20,07,28,17.70
2016,12,20,07,29,17.70
2016,12,20,07,30,20.90
2016,12,20,07,31,17.70
2016,12,20,07,32,27.40
2016,12,20,07,33,22.50
2016,12,20,07,34,16.10
2016,12,20,07,35,16.10
2016,12,20,07,36,17.70
2016,12,20,07,37,14.50
2016,12,20,07,38,14.50
2016,12,20,07,39,20.90
2016,12,20,07,40,16.10
2016,12,20,07,41,14.50
2016,12,20,07,42,22.50
2016,12,20,07,43,53.10
2016,12,20,07,44,19.30
2016,12,20,07,45,16.10
2016,12,20,07,46,11.30
2016,12,20,07,47,16.10
2016,12,20,07,48,25.70
2016,12,20,07,49,19.30
2016,12,20,07,50,14.50
2016,12,20,07,51,14.50
2016,12,20,07,52,20.90
2016,12,20,07,53,16.10
2016,12,20,07,54,30.60
2016,12,20,07,55,20.90
2016,12,20,07,56,20.90
2016,12,20,07,57,20.90
2016,12,20,07,58,20.90
2016,12,20,07,59,20.90
2016,12,20,08,00,20.90
2016,12,20,08,01,25.70
2016,12,20,08,02,20.90
2016,12,20,08,03,32.20
2016,12,20,08,04,30.60
2016,12,20,08,05,24.20
2016,12,20,08,06,29.00
2016,12,20,08,07,19.30
2016,12,20,08,08,29.00
2016,12,20,08,09,22.50
2016,12,20,08,10,30.60
2016,12,20,08,11,24.20
2016,12,20,08,12,20.90
2016,12,20,08,13,19.30
2016,12,20,08,14,22.50
2016,12,20,08,15,20.90
2016,12,20,08,16,19.30
2016,12,20,08,17,20.90
2016,12,20,08,18,17.70
2016,12,20,08,19,17.70
2016,12,20,08,20,30.60
2016,12,20,08,21,27.40
2016,12,20,08,22,19.30
2016,12,20,08,23,16.10
2016,12,20,08,24,22.50
2016,12,20,08,25,29.00
2016,12,20,08,26,37.00
2016,12,20,08,27,20.90
2016,12,20,08,28,19.30
2016,12,20,08,29,19.30
2016,12,20,08,30,22.50
2016,12,20,08,31,22.50
2016,12,20,08,32,24.20
2016,12,20,08,33,25.70
2016,12,20,08,34,20.90
2016,12,20,08,35,29.00
2016,12,20,08,36,32.20
2016,12,20,08,37,37.00
2016,12,20,08,38,37.00
2016,12,20,08,39,33.80
2016,12,20,08,40,38.60
2016,12,20,08,41,29.00
2016,12,20,08,42,20.90
2016,12,20,08,43,32.20
2016,12,20,08,44,30.60
2016,12,20,08,45,24.20
2016,12,20,08,46,30.60
2016,12,20,08,47,40.20
2016,12,20,08,48,43.50
2016,12,20,08,49,33.80
2016,12,20,08,50,38.60
2016,12,20,08,51,32.20
2016,12,20,08,52,30.60
2016,12,20,08,53,37.00
2016,12,20,08,54,38.60
2016,12,20,08,55,33.80
2016,12,20,08,56,30.60
2016,12,20,08,57,25.70
2016,12,20,08,58,45.10
2016,12,20,08,59,35.40
2016,12,20,09,00,38.60
2016,12,20,09,01,48.30
2016,12,20,09,02,41.80
2016,12,20,09,03,27.40
2016,12,20,09,04,27.40
2016,12,20,09,05,32.20
2016,12,20,09,06,30.60
2016,12,20,09,07,38.60
2016,12,20,09,08,38.60
2016,12,20,09,09,33.80
2016,12,20,09,10,49.90
2016,12,20,09,11,35.40
2016,12,20,09,12,35.40
2016,12,20,09,13,45.10
2016,12,20,09,14,38.60
2016,12,20,09,15,35.40
2016,12,20,09,16,38.60
2016,12,20,09,17,27.40
2016,12,20,09,18,49.90
2016,12,20,09,19,35.40
2016,12,20,09,20,38.60
2016,12,20,09,21,40.20
2016,12,20,09,22,38.60
2016,12,20,09,23,24.20
2016,12,20,09,24,38.60
2016,12,20,09,25,29.00
2016,12,20,09,26,35.40
2016,12,20,09,27,49.90
2016,12,20,09,28,40.20
2016,12,20,09,29,29.00
2016,12,20,09,30,40.20
2016,12,20,09,31,37.00
2016,12,20,09,32,37.00
2016,12,20,09,33,45.10
2016,12,20,09,34,53.10
2016,12,20,09,35,38.60
2016,12,20,09,36,48.30
2016,12,20,09,37,38.60
2016,12,20,09,38,37.00
2016,12,20,09,39,35.40
2016,12,20,09,40,38.60
2016,12,20,09,41,46.70
2016,12,20,09,42,53.10
2016,12,20,09,43,38.60
2016,12,20,09,44,40.20
2016,12,20,09,45,57.90
2016,12,20,09,46,49.90
2016,12,20,09,47,35.40
2016,12,20,09,48,33.80
2016,12,20,09,49,33.80
2016,12,20,09,50,33.80
2016,12,20,09,51,59.50
2016,12,20,09,52,40.20
2016,12,20,09,53,40.20
2016,12,20,09,54,40.20
2016,12,20,09,55,45.10
2016,12,20,09,56,56.30
2016,12,20,09,57,51.50
2016,12,20,09,58,51.50
2016,12,20,09,59,43.50
2016,12,20,10,00,57.90
2016,12,20,10,01,49.90
2016,12,20,10,02,54.70
2016,12,20,10,03,41.80
2016,12,20,10,04,45.10
2016,12,20,10,05,48.30
2016,12,20,10,06,53.10
2016,12,20,10,07,43.50
2016,12,20,10,08,45.10
2016,12,20,10,09,62.70
2016,12,20,10,10,46.70
2016,12,20,10,11,56.30
2016,12,20,10,12,45.10
2016,12,20,10,13,51.50
2016,12,20,10,14,54.70
2016,12,20,10,15,46.70
2016,12,20,10,16,57.90
2016,12,20,10,17,49.90
2016,12,20,10,18,38.60
2016,12,20,10,19,46.70
2016,12,20,10,20,45.10
2016,12,20,10,21,43.50
2016,12,20,10,22,56.30
2016,12,20,10,23,51.50
2016,12,20,10,24,53.10
2016,12,20,10,25,45.10
2016,12,20,10,26,45.10
2016,12,20,10,27,46.70
2016,12,20,10,28,41.80
2016,12,20,10,29,38.60
2016,12,20,10,30,45.10
2016,12,20,10,31,32.20
2016,12,20,10,32,45.10
2016,12,20,10,33,45.10
2016,12,20,10,34,37.00
2016,12,20,10,35,40.20
2016,12,20,10,36,38.60
2016,12,20,10,37,37.00
2016,12,20,10,38,40.20
2016,12,20,10,39,22.50
2016,12,20,10,40,25.70
2016,12,20,10,41,37.00
2016,12,20,10,42,33.80
2016,12,20,10,43,40.20
2016,12,20,10,44,37.00
2016,12,20,10,45,40.20
2016,12,20,10,46,35.40
2016,12,20,10,47,32.20
2016,12,20,10,48,38.60
2016,12,20,10,49,41.80
2016,12,20,10,50,33.80
2016,12,20,10,51,38.60
2016,12,20,10,52,41.80
2016,12,20,10,53,29.00
2016,12,20,10,54,29.00
2016,12,20,10,55,35.40
2016,12,20,10,56,29.00
2016,12,20,10,57,25.70
2016,12,20,10,58,43.50
2016,12,20,10,59,43.50
2016,12,20,11,00,29.00
2016,12,20,11,01,38.60
2016,12,20,11,02,40.20
2016,12,20,11,03,41.80
2016,12,20,11,04,48.30
2016,12,20,11,05,38.60
2016,12,20,11,06,38.60
2016,12,20,11,07,37.00
2016,12,20,11,08,35.40
2016,12,20,11,09,29.00
2016,12,20,11,10,35.40
2016,12,20,11,11,24.20
2016,12,20,11,12,25.70
2016,12,20,11,13,33.80
2016,12,20,11,14,27.40
2016,12,20,11,15,38.60
2016,12,20,11,16,51.50
2016,12,20,11,17,29.00
2016,12,20,11,18,38.60
2016,12,20,11,19,33.80
2016,12,20,11,20,25.70
2016,12,20,11,21,30.60
2016,12,20,11,22,29.00
2016,12,20,11,23,38.60
2016,12,20,11,24,32.20
2016,12,20,11,25,35.40
2016,12,20,11,26,43.50
2016,12,20,11,27,37.00
2016,12,20,11,28,30.60
2016,12,20,11,29,37.00
2016,12,20,11,30,37.00
2016,12,20,11,31,27.40
2016,12,20,11,32,43.50
2016,12,20,11,33,33.80
2016,12,20,11,34,46.70
2016,12,20,11,35,32.20
2016,12,20,11,36,33.80
2016,12,20,11,37,37.00
2016,12,20,11,38,38.60
2016,12,20,11,39,22.50
2016,12,20,11,40,29.00
2016,12,20,11,41,41.80
2016,12,20,11,42,30.60
2016,12,20,11,43,30.60
2016,12,20,11,44,19.30
2016,12,20,11,45,35.40
2016,12,20,11,46,45.10
2016,12,20,11,47,38.60
2016,12,20,11,48,33.80
2016,12,20,11,49,35.40
2016,12,20,11,50,14.50
2016,12,20,11,51,25.70
2016,12,20,11,52,19.30
2016,12,20,11,53,29.00
2016,12,20,11,54,29.00
2016,12,20,11,55,37.00
2016,12,20,11,56,22.50
2016,12,20,11,57,30.60
2016,12,20,11,58,24.20
2016,12,20,11,59,37.00
2016,12,20,12,00,33.80
2016,12,20,12,01,25.70
2016,12,20,12,02,24.20
2016,12,20,12,03,27.40
2016,12,20,12,04,37.00
2016,12,20,12,05,25.70
2016,12,20,12,06,25.70
2016,12,20,12,07,25.70
2016,12,20,12,08,19.30
2016,12,20,12,09,22.50
2016,12,20,12,10,24.20
2016,12,20,12,11,32.20
2016,12,20,12,12,22.50
2016,12,20,12,13,24.20
2016,12,20,12,14,22.50
2016,12,20,12,15,37.00
2016,12,20,12,16,43.50
2016,12,20,12,17,48.30
2016,12,20,12,18,37.00
2016,12,20,12,19,46.70
2016,12,20,12,20,29.00
2016,12,20,12,21,45.10
2016,12,20,12,22,57.90
2016,12,20,12,23,35.40
2016,12,20,12,24,43.50
2016,12,20,12,25,45.10
2016,12,20,12,26,33.80
2016,12,20,12,27,33.80
2016,12,20,12,28,33.80
2016,12,20,12,29,70.80
2016,12,20,12,30,49.90
2016,12,20,12,31,40.20
2016,12,20,12,32,43.50
2016,12,20,12,33,30.60
2016,12,20,12,34,41.80
2016,12,20,12,35,41.80
2016,12,20,12,36,40.20
2016,12,20,12,37,38.60
2016,12,20,12,38,40.20
2016,12,20,12,39,43.50
2016,12,20,12,40,46.70
2016,12,20,12,41,37.00
2016,12,20,12,42,51.50
2016,12,20,12,43,38.60
2016,12,20,12,44,38.60
2016,12,20,12,45,45.10
2016,12,20,12,46,38.60
2016,12,20,12,47,30.60
2016,12,20,12,48,25.70
2016,12,20,12,49,32.20
2016,12,20,12,50,51.50
2016,12,20,12,51,46.70
2016,12,20,12,52,51.50
2016,12,20,12,53,53.10
2016,12,20,12,54,43.50
2016,12,20,12,55,35.40
2016,12,20,12,56,37.00
2016,12,20,12,57,35.40
2016,12,20,12,58,38.60
2016,12,20,12,59,37.00
2016,12,20,13,00,41.80
2016,12,20,13,01,46.70
2016,12,20,13,02,38.60
2016,12,20,13,03,38.60
2016,12,20,13,04,43.50
2016,12,20,13,05,49.90
2016,12,20,13,06,41.80
2016,12,20,13,07,51.50
2016,12,20,13,08,40.20
2016,12,20,13,09,57.90
2016,12,20,13,10,49.90
2016,12,20,13,11,40.20
2016,12,20,13,12,32.20
2016,12,20,13,13,24.20
2016,12,20,13,14,25.70
2016,12,20,13,15,33.80
2016,12,20,13,16,38.60
2016,12,20,13,17,35.40
2016,12,20,13,18,43.50
2016,12,20,13,19,35.40
2016,12,20,13,20,45.10
2016,12,20,13,21,43.50
2016,12,20,13,22,43.50
2016,12,20,13,23,38.60
2016,12,20,13,24,48.30
2016,12,20,13,25,43.50
2016,12,20,13,26,37.00
2016,12,20,13,27,29.00
2016,12,20,13,28,35.40
2016,12,20,13,29,35.40
2016,12,20,13,30,30.60
2016,12,20,13,31,24.20
2016,12,20,13,32,51.50
2016,12,20,13,33,49.90
2016,12,20,13,34,46.70
2016,12,20,13,35,46.70
2016,12,20,13,36,35.40
2016,12,20,13,37,35.40
2016,12,20,13,38,33.80
2016,12,20,13,39,29.00
2016,12,20,13,40,37.00
2016,12,20,13,41,46.70
2016,12,20,13,42,33.80
2016,12,20,13,43,32.20
2016,12,20,13,44,32.20
2016,12,20,13,45,30.60
2016,12,20,13,46,29.00
2016,12,20,13,47,35.40
2016,12,20,13,48,38.60
2016,12,20,13,49,30.60
2016,12,20,13,50,45.10
2016,12,20,13,51,53.10
2016,12,20,13,52,38.60
2016,12,20,13,53,49.90
2016,12,20,13,54,51.50
2016,12,20,13,55,33.80
2016,12,20,13,56,43.50
2016,12,20,13,57,41.80
2016,12,20,13,58,57.90
2016,12,20,13,59,32.20
2016,12,20,14,00,48.30
2016,12,20,14,01,40.20
2016,12,20,14,02,38.60
2016,12,20,14,03,40.20
2016,12,20,14,04,59.50
2016,12,20,14,05,48.30
2016,12,20,14,06,46.70
2016,12,20,14,07,29.00
2016,12,20,14,08,41.80
2016,12,20,14,09,37.00
2016,12,20,14,10,35.40
2016,12,20,14,11,37.00
2016,12,20,14,12,43.50
2016,12,20,14,13,29.00
2016,12,20,14,14,38.60
2016,12,20,14,15,48.30
2016,12,20,14,16,33.80
2016,12,20,14,17,40.20
2016,12,20,14,18,29.00
2016,12,20,14,19,37.00
2016,12,20,14,20,24.20
2016,12,20,14,21,22.50
2016,12,20,14,22,20.90
2016,12,20,14,23,22.50
2016,12,20,14,24,33.80
2016,12,20,14,25,32.20
2016,12,20,14,26,33.80
2016,12,20,14,27,17.70
2016,12,20,14,28,19.30
2016,12,20,14,29,38.60
2016,12,20,14,30,35.40
2016,12,20,14,31,27.40
2016,12,20,14,32,35.40
2016,12,20,14,33,35.40
2016,12,20,14,34,37.00
2016,12,20,14,35,24.20
2016,12,20,14,36,20.90
2016,12,20,14,37,40.20
2016,12,20,14,38,24.20
2016,12,20,14,39,29.00
2016,12,20,14,40,38.60
2016,12,20,14,41,27.40
2016,12,20,14,42,30.60
2016,12,20,14,43,37.00
2016,12,20,14,44,25.70
2016,12,20,14,45,16.10
2016,12,20,14,46,30.60
2016,12,20,14,47,32.20
2016,12,20,14,48,25.70
2016,12,20,14,49,20.90
2016,12,20,14,50,25.70
2016,12,20,14,51,27.40
2016,12,20,14,52,37.00
2016,12,20,14,53,40.20
2016,12,20,14,54,24.20
2016,12,20,14,55,24.20
2016,12,20,14,56,30.60
2016,12,20,14,57,33.80
2016,12,20,14,58,27.40
2016,12,20,14,59,27.40
2016,12,20,15,00,24.20
2016,12,20,15,01,30.60
2016,12,20,15,02,19.30
2016,12,20,15,03,35.40
2016,12,20,15,04,32.20
2016,12,20,15,05,29.00
2016,12,20,15,06,25.70
2016,12,20,15,07,29.00
2016,12,20,15,08,33.80
2016,12,20,15,09,29.00
2016,12,20,15,10,35.40
2016,12,20,15,11,38.60
2016,12,20,15,12,27.40
2016,12,20,15,13,38.60
2016,12,20,15,14,40.20
2016,12,20,15,15,25.70
2016,12,20,15,16,30.60
2016,12,20,15,17,32.20
2016,12,20,15,18,45.10
2016,12,20,15,19,35.40
2016,12,20,15,20,27.40
2016,12,20,15,21,29.00
2016,12,20,15,22,40.20
2016,12,20,15,23,40.20
2016,12,20,15,24,33.80
2016,12,20,15,25,35.40
2016,12,20,15,26,38.60
2016,12,20,15,27,37.00
2016,12,20,15,28,41.80
2016,12,20,15,29,41.80
2016,12,20,15,30,37.00
2016,12,20,15,31,38.60
2016,12,20,15,32,33.80
2016,12,20,15,33,33.80
2016,12,20,15,34,30.60
2016,12,20,15,35,30.60
2016,12,20,15,36,35.40
2016,12,20,15,37,35.40
2016,12,20,15,38,27.40
2016,12,20,15,39,22.50
2016,12,20,15,40,27.40
2016,12,20,15,41,32.20
2016,12,20,15,42,38.60
2016,12,20,15,43,37.00
2016,12,20,15,44,20.90
2016,12,20,15,45,29.00
2016,12,20,15,46,25.70
2016,12,20,15,47,32.20
2016,12,20,15,48,30.60
2016,12,20,15,49,24.20
2016,12,20,15,50,27.40
2016,12,20,15,51,24.20
2016,12,20,15,52,32.20
2016,12,20,15,53,29.00
2016,12,20,15,54,41.80
2016,12,20,15,55,38.60
2016,12,20,15,56,49.90
2016,12,20,15,57,27.40
2016,12,20,15,58,27.40
2016,12,20,15,59,32.20
2016,12,20,16,00,27.40
2016,12,20,16,01,25.70
2016,12,20,16,02,33.80
2016,12,20,16,03,32.20
2016,12,20,16,04,32.20
2016,12,20,16,05,25.70
2016,12,20,16,06,32.20
2016,12,20,16,07,35.40
2016,12,20,16,08,25.70
2016,12,20,16,09,30.60
2016,12,20,16,10,32.20
2016,12,20,16,11,25.70
2016,12,20,16,12,19.30
2016,12,20,16,13,45.10
2016,12,20,16,14,30.60
2016,12,20,16,15,32.20
2016,12,20,16,16,32.20
2016,12,20,16,17,24.20
2016,12,20,16,18,35.40
2016,12,20,16,19,29.00
2016,12,20,16,20,33.80
2016,12,20,16,21,35.40
2016,12,20,16,22,37.00
2016,12,20,16,23,35.40
2016,12,20,16,24,29.00
2016,12,20,16,25,49.90
2016,12,20,16,26,53.10
2016,12,20,16,27,49.90
2016,12,20,16,28,32.20
2016,12,20,16,29,30.60
2016,12,20,16,30,32.20
2016,12,20,16,31,37.00
2016,12,20,16,32,35.40
2016,12,20,16,33,37.00
2016,12,20,16,34,25.70
2016,12,20,16,35,33.80
2016,12,20,16,36,27.40
2016,12,20,16,37,32.20
2016,12,20,16,38,30.60
2016,12,20,16,39,43.50
2016,12,20,16,40,40.20
2016,12,20,16,41,33.80
2016,12,20,16,42,27.40
2016,12,20,16,43,40.20
2016,12,20,16,44,49.90
2016,12,20,16,45,45.10
2016,12,20,16,46,33.80
2016,12,20,16,47,29.00
2016,12,20,16,48,27.40
2016,12,20,16,49,29.00
2016,12,20,16,50,30.60
2016,12,20,16,51,22.50
2016,12,20,16,52,32.20
2016,12,20,16,53,32.20
2016,12,20,16,54,30.60
2016,12,20,16,55,30.60
2016,12,20,16,56,32.20
2016,12,20,16,57,25.70
2016,12,20,16,58,24.20
2016,12,20,16,59,30.60
2016,12,20,17,00,29.00
2016,12,20,17,01,45.10
2016,12,20,17,02,32.20
2016,12,20,17,03,38.60
2016,12,20,17,04,37.00
2016,12,20,17,05,38.60
2016,12,20,17,06,37.00
2016,12,20,17,07,40.20
2016,12,20,17,08,37.00
2016,12,20,17,09,49.90
2016,12,20,17,10,43.50
2016,12,20,17,11,45.10
2016,12,20,17,12,53.10
2016,12,20,17,13,45.10
2016,12,20,17,14,38.60
2016,12,20,17,15,38.60
2016,12,20,17,16,40.20
2016,12,20,17,17,25.70
2016,12,20,17,18,29.00
2016,12,20,17,19,29.00
2016,12,20,17,20,27.40
2016,12,20,17,21,24.20
2016,12,20,17,22,24.20
2016,12,20,17,23,32.20
2016,12,20,17,24,24.20
2016,12,20,17,25,22.50
2016,12,20,17,26,22.50
2016,12,20,17,27,22.50
2016,12,20,17,28,33.80
2016,12,20,17,29,25.70
2016,12,20,17,30,14.50
2016,12,20,17,31,11.30
2016,12,20,17,32,14.50
2016,12,20,17,33,9.60
2016,12,20,17,34,17.70
2016,12,20,17,35,16.10
2016,12,20,17,36,17.70
2016,12,20,17,37,17.70
2016,12,20,17,38,32.20
2016,12,20,17,39,24.20
2016,12,20,17,40,20.90
2016,12,20,17,41,20.90
2016,12,20,17,42,22.50
2016,12,20,17,43,22.50
2016,12,20,17,44,25.70
2016,12,20,17,45,14.50
2016,12,20,17,46,16.10
2016,12,20,17,47,22.50
2016,12,20,17,48,25.70
2016,12,20,17,49,20.90
2016,12,20,17,50,24.20
2016,12,20,17,51,12.90
2016,12,20,17,52,9.60
2016,12,20,17,53,11.30
2016,12,20,17,54,17.70
2016,12,20,17,55,1.60
2016,12,20,17,56,6.40
2016,12,20,17,57,9.60
2016,12,20,18,02,1.60
2016,12,20,18,03,6.40
2016,12,20,18,04,1.60
2016,12,20,18,05,8.10
2016,12,20,18,07,1.60
2016,12,20,18,08,1.60
2016,12,20,18,09,1.60
2016,12,20,18,11,12.90
2016,12,20,18,12,1.60
2016,12,20,18,13,16.10
2016,12,20,18,14,8.10
2016,12,20,18,15,4.80
2016,12,20,18,18,1.60
2016,12,20,18,20,9.60
2016,12,20,18,21,14.50
2016,12,20,18,22,12.90
2016,12,20,18,23,16.10
2016,12,20,18,24,12.90
2016,12,20,18,25,9.60
2016,12,20,18,26,1.60
2016,12,20,18,29,8.10
2016,12,20,18,30,3.20
2016,12,20,18,33,1.60
2016,12,20,18,34,11.30
2016,12,20,18,35,11.30
2016,12,20,18,36,11.30
2016,12,20,18,37,3.20
2016,12,20,18,38,1.60
2016,12,20,18,39,3.20
2016,12,20,18,40,3.20
2016,12,20,18,43,1.60
2016,12,20,18,46,1.60
2016,12,20,18,52,8.10
2016,12,20,18,53,9.60
2016,12,20,18,54,1.60
2016,12,20,18,56,6.40
2016,12,20,18,57,12.90
2016,12,20,18,58,9.60
2016,12,20,18,59,9.60
2016,12,20,19,00,8.10
2016,12,20,19,01,12.90
2016,12,20,19,02,12.90
2016,12,20,19,03,9.60
2016,12,20,19,04,8.10
2016,12,20,19,05,11.30
2016,12,20,19,06,16.10
2016,12,20,19,07,14.50
2016,12,20,19,08,12.90
2016,12,20,19,09,14.50
2016,12,20,19,10,11.30
2016,12,20,19,11,17.70
2016,12,20,19,12,12.90
2016,12,20,19,13,19.30
2016,12,20,19,14,12.90
2016,12,20,19,15,12.90
2016,12,20,19,16,19.30
2016,12,20,19,17,14.50
2016,12,20,19,18,11.30
2016,12,20,19,19,8.10
2016,12,20,19,20,9.60
2016,12,20,19,21,8.10
2016,12,20,19,22,16.10
2016,12,20,19,23,14.50
2016,12,20,19,24,14.50
2016,12,20,19,25,8.10
2016,12,20,19,26,6.40
2016,12,20,19,27,9.60
2016,12,20,19,28,11.30
2016,12,20,19,29,8.10
2016,12,20,19,30,11.30
2016,12,20,19,31,9.60
2016,12,20,19,32,12.90
2016,12,20,19,33,16.10
2016,12,20,19,34,11.30
2016,12,20,19,35,9.60
2016,12,20,19,36,8.10
2016,12,20,19,37,8.10
2016,12,20,19,38,12.90
2016,12,20,19,39,11.30
2016,12,20,19,40,8.10
2016,12,20,19,41,6.40
2016,12,20,19,42,11.30
2016,12,20,19,43,11.30
2016,12,20,19,44,9.60
2016,12,20,19,45,4.80
2016,12,20,19,46,6.40
2016,12,20,19,47,11.30
2016,12,20,19,48,11.30
2016,12,20,19,49,8.10